Oceanside, CA

5:58 AM PST on January 19, 2017 (GMT -0800)
Oceanside Municipal

Weather History for KOKB - February, 2014

Change the Weather History Date:

Thursday, February 13, 2014

  Actual Average Record
Temperature  
Mean Temperature 59 °F 54 °F  
Max Temperature 78 °F 65 °F 84 °F (2015)
Min Temperature 40 °F 43 °F 31 °F (2004)
Degree Days  
Heating Degree Days 6 11  
Month to date heating degree days 140 143  
Since 1 July heating degree days 1065 1248  
Cooling Degree Days 0 0  
Month to date cooling degree days 0 0  
Year to date cooling degree days 0 0  
Growing Degree Days 10 (Base 50)    
Moisture  
Dew Point 45 °F    
Average Humidity 61    
Maximum Humidity 96    
Minimum Humidity 25    
Precipitation  
Precipitation 0.00 in 0.13 in 1.78 in (2001)
Month to date precipitation 0.24 1.11  
Year to date precipitation 0.28 3.76  
Since 1 July precipitation 1.88  
Snow  
Snow 0.00 in - - ()
Month to date snowfall 0.0  
Year to date snowfall 0.0  
Snow Depth 0.00 in    
Sea Level Pressure  
Sea Level Pressure 30.03 in    
Wind  
Wind Speed 4 mph (WSW)    
Max Wind Speed 12 mph    
Max Gust Speed 14 mph    
Visibility 8 miles    
Events      
T = Trace of Precipitation, MM = Missing Value Source: NWS Daily Summary

Daily Weather History Graph

Daily Weather History Graph

Search for Another Location

Airport or City:

Trip Planner

Search our weather history database for the weather conditions in past years. The results will help you decide how hot, cold, wet, or windy it might be!

Date:

Astronomy

Feb. 13, 2014 Rise Set
Actual Time 6:34 AM PST 5:32 PM PST
Civil Twilight 6:09 AM PST 5:58 PM PST
Nautical Twilight 5:40 AM PST 6:27 PM PST
Astronomical Twilight 5:11 AM PST 6:56 PM PST
Moon 4:44 PM PST (2/13) 5:30 AM PST (2/13)
Length of Visible Light 11h 48m
Length of Day
10h 57m
Waxing Gibbous, 99% of the Moon is Illuminated
Feb 13
Waxing Gibbous
Feb 14
Full
Feb 22
Last Quarter
Mar 1
New
Mar 8
First Quarter

Hourly Weather History & Observations

Time (PST) Temp. Windchill Dew Point Humidity Pressure Visibility Wind Dir Wind Speed Gust Speed Precip Events Conditions
12:02 AM 48.0 °F - 45.0 °F 89% 30.06 in 2.5 mi Calm Calm - N/A   Clear
12:10 AM 46.9 °F - 45.0 °F 93% 30.06 in 3.0 mi Calm Calm - N/A   Clear
12:36 AM 46.9 °F - 44.1 °F 90% 30.06 in 2.5 mi Calm Calm - N/A   Clear
12:52 AM 46.9 °F - 44.1 °F 90% 30.06 in 3.0 mi Calm Calm - N/A   Clear
1:52 AM 44.1 °F - 41.0 °F 89% 30.05 in 4.0 mi Calm Calm - N/A   Clear
2:52 AM 44.1 °F - 41.0 °F 89% 30.04 in 3.0 mi Calm Calm - N/A   Clear
3:52 AM 42.1 °F - 39.0 °F 89% 30.03 in 4.0 mi Calm Calm - N/A   Clear
4:52 AM 43.0 °F - 41.0 °F 93% 30.03 in 5.0 mi Calm Calm - N/A   Clear
5:52 AM 43.0 °F - 39.9 °F 89% 30.05 in 7.0 mi Calm Calm - N/A   Clear
6:52 AM 43.0 °F 41.3 °F 39.9 °F 89% 30.06 in 6.0 mi East 3.5 mph - N/A   Clear
7:52 AM 50.0 °F - 43.0 °F 77% 30.07 in 10.0 mi ENE 3.5 mph - N/A   Clear
8:52 AM 60.1 °F - 43.0 °F 53% 30.07 in 10.0 mi NNE 4.6 mph - N/A   Clear
9:52 AM 71.1 °F - 39.9 °F 32% 30.06 in 10.0 mi Variable 3.5 mph - N/A   Clear
10:52 AM 78.1 °F - 39.0 °F 25% 30.05 in 10.0 mi WSW 9.2 mph - N/A   Clear
11:52 AM 75.0 °F - 46.9 °F 37% 30.03 in 10.0 mi WSW 6.9 mph - N/A   Clear
12:52 PM 75.9 °F - 44.1 °F 32% 30.00 in 10.0 mi WSW 8.1 mph - N/A   Clear
1:52 PM 73.0 °F - 48.0 °F 41% 29.98 in 10.0 mi SW 10.4 mph - N/A   Clear
2:52 PM 72.0 °F - 48.9 °F 44% 29.97 in 10.0 mi WSW 10.4 mph - N/A   Clear
3:52 PM 69.1 °F - 50.0 °F 51% 29.97 in 10.0 mi WSW 6.9 mph - N/A   Clear
4:52 PM 66.9 °F - 51.1 °F 57% 29.97 in 10.0 mi West 3.5 mph - N/A   Clear
5:52 PM 62.1 °F - 55.0 °F 78% 29.98 in 10.0 mi WSW 6.9 mph - N/A   Clear
6:52 PM 57.9 °F - 53.1 °F 84% 29.98 in 9.0 mi Calm Calm - N/A   Clear
7:52 PM 54.0 °F - 50.0 °F 86% 30.00 in 8.0 mi Calm Calm - N/A   Clear
8:52 PM 51.1 °F - 46.0 °F 83% 30.01 in 10.0 mi East 3.5 mph - N/A   Clear
9:52 PM 48.9 °F - 45.0 °F 86% 30.01 in 9.0 mi Calm Calm - N/A   Clear
10:52 PM 48.0 °F - 43.0 °F 83% 30.02 in 10.0 mi Calm Calm - N/A   Clear
11:52 PM 46.0 °F - 42.1 °F 86% 30.02 in 10.0 mi Calm Calm - N/A   Clear